Regional Weather Roundup
Issued by NWS Wakefield, VA

Home | Current Version | Previous Version | Graphics & Text | Print | Product List | Glossary On
Versions: 1 2 3 4 5 6 7 8 9 10 11 12 13 14 15 16 17 18 19 20 21 22 23 24 25 26 27 28 29 30 31 32 33 34 35 36 37 38 39 40 41 42 43 44 45 46 47 48 49 50
000
ASUS41 KAKQ 180414
RWRAKQ

REGIONAL WEATHER ROUNDUP
NATIONAL WEATHER SERVICE WAKEFIELD VA
1200 AM EDT SAT APR 18 2015

Note: "fair" indicates few or no clouds below 12,000 feet with no
significant weather and/or obstructions to visibility. * = Denotes
station may not report precipitation (e.g., rain,snow,etc.),
thunder or fog.

VAZ042-051-052>054-056-180500-
NORTHERN VIRGINIA

CITY           SKY/WX    TMP DP  RH WIND       PRES   REMARKS
WASH NATIONAL  MOCLDY    68  61  78 CALM      29.99S
DULLES         MOCLDY    63  58  83 CALM      30.00S
FORT BELVOIR   MOCLDY    63  59  86 NW1       29.99R
QUANTICO       MOCLDY    66  60  81 W5        29.99S
FREDERICKSBRG* MOCLDY    64  64 100 SW3       29.99S
STAFFORD*      MOCLDY    60  32  35 CALM      30.03S
WARRENTON      MOCLDY    62  62  99 CALM      29.99S
CULPEPER*      MOCLDY    64  63  94 CALM      30.00S
MANASSAS*      MOCLDY    61  61 100 CALM      29.99S
LEESBURG*      PTCLDY    61  59  94 NW5       30.01S
WINCHESTER     PTCLDY    61  50  67 NW7       30.02S
FRONT ROYAL*   FAIR      61  54  77 CALM      30.01S
LURAY*         FAIR      59  55  88 CALM      30.02F
$$

VAZ048-049-060>072-079>083-180500-
CENTRAL AND SOUTH CENTRAL VIRGINIA

CITY           SKY/WX    TMP DP  RH WIND       PRES   REMARKS
RICHMOND       MOCLDY    64  62  93 CALM      29.99S FOG
CHESTERFIELD*  NOT AVBL
PETERSBURG*    CLOUDY    64  63  96 CALM      30.00R FOG
HANOVER        FOG       60  59  96 CALM      30.01S VSB 1/4
TAPPAHANNOCK*  MOCLDY    60  57  88 CALM      30.00S
QUINTON*       FAIR      63  62  99 CALM      29.99S
CHARLOTTSVILLE CLOUDY    62  60  93 NW3       30.01R FOG
GORDONSVILLE*  CLOUDY    58  57  98 CALM      30.00S
ORANGE*        PTCLDY    59  57  94 CALM      30.02R
LOUISA*        FOG       61  59  94 CALM      29.99S VSB 3/4
BUMPASS*       FAIR      60  60  99 CALM      30.00S
FARMVILLE*     CLOUDY    67  66  97 CALM      29.98F
CREWE*         CLOUDY    64  60  87 CALM      29.99S
FORT PICKETT*  FAIR      63  61  93 CALM      30.00S
CHASE CITY*    FAIR      63  63 100 CALM      30.01S
CLARKSVILLE*   FAIR      63  61  94 CALM      30.00S
SOUTH HILL*    PTCLDY    59  58  97 CALM      30.06S
LAWRENCEVILLE* MOCLDY    61  60  97 SW3       29.99F
EMPORIA*       MOCLDY    59  59 100 CALM      30.01S
$$

VAZ088>098-180500-
SOUTHEAST VIRGINIA

CITY           SKY/WX    TMP DP  RH WIND       PRES   REMARKS
NORFOLK        CLOUDY    65  59  81 S5        29.99S
VIRGINIA BEACH CLOUDY    67  60  78 S3        29.99S
NORFOLK NAVAL  CLOUDY    71  61  70 S6        30.00S
WEST POINT*    MOCLDY    66  62  85 CALM      30.00S
SALUDA*        CLOUDY    64  60  88 CALM      29.98S
NEWPORT NEWS   MOCLDY    65  59  81 CALM      29.99S
LANGLEY AFB    MOCLDY    65  62  88 S5        29.98S
FORT EUSTIS    MOCLDY    64  64 100 SE2       29.97S
WILLIAMSBURG*  MOCLDY    68  64  88 CALM      30.00S
HR EXEC AP*    FAIR      64  61  88 S6        30.00F
FRANKLIN*      MOCLDY   N/A N/A N/A CALM      30.00S
WAKEFIELD      CLOUDY    65  61  87 CALM      29.99S
$$

VAZ020-022-025-037-045-180500-
WEST CENTRAL AND SOUTHWEST VIRGINIA

CITY           SKY/WX    TMP DP  RH WIND       PRES   REMARKS
STAUNTON*      MOCLDY    58  56  92 CALM      30.05S
WAYNESBORO*    CLOUDY    62  56  81 CALM      30.04R
HOT SPRINGS VA MOCLDY    58  50  76 N7        30.10S
LYNCHBURG      MOCLDY    60  59  96 CALM      30.02S
DANVILLE       MOCLDY    63  60  90 S3        30.01S
SOUTH BOSTON*  FAIR      62  59  90 CALM      30.00S
MARTINSVILLE   CLOUDY    61  61 100 CALM      30.05S FOG
ROANOKE        CLOUDY    65  58  78 CALM      30.04R
BLACKSBURG     CLOUDY    57  52  82 N6        30.08S
DUBLIN*        CLOUDY    62  54  74 CALM      30.07S
MARION*        CLOUDY    60  54  79 W3        30.10S
HILLSVILLE*    CLOUDY    60  58  96 S3        30.08S
RICHLANDS*     FAIR      64  48  57 CALM      30.08S
WISE*          MOCLDY    63  50  63 N5        30.10S
ABINGDON*      CLOUDY    64  58  80 CALM      30.07S
$$

MDZ021>025-VAZ099-100-180500-
SOUTHERN MARYLAND AND THE DELMARVA PENINSULA

CITY           SKY/WX    TMP DP  RH WIND       PRES   REMARKS
PATUXENT RIVER MOCLDY    59  56  89 CALM      29.97F
BAY BRIDGE APT   N/A     59  57  94 CALM      29.98S
LEONARDTOWN    MOCLDY    64  59  82 CALM      29.99S
DOVER          PTCLDY    60  60 100 N3        29.94S
GEORGETOWN     CLOUDY    63  61  93 CALM      29.99S
EASTON         MOCLDY    66  66 100 S3        30.01F
CAMBRIDGE      CLOUDY    64  61  88 NW3       29.99R
SALISBURY      CLOUDY    61  59  93 S3        29.97F
OCEAN CITY     MOCLDY    56  54  93 VRB6      29.98F
WALLOPS ISLAND CLOUDY    63  60  90 S10       29.98F
ACCOMACK*      CLOUDY    61  55  82 S8        29.99S
$$

NCZ012>017-030>032-180500-
NORTH CENTRAL AND EASTERN NORTH CAROLINA

CITY           SKY/WX    TMP DP  RH WIND       PRES   REMARKS
ROANOKE RAPIDS FAIR      63  61  94 CALM      30.00S
RALEIGH        CLOUDY    65  62  90 CALM      30.01F
ELIZABETH CITY MOCLDY    64  61  90 S5        30.00F
AHOSKIE*       MOCLDY    62  61  97 CALM      30.01S
EDENTON*       MOCLDY    65  62  90 CALM      30.01S
CURRITUCK*     MOCLDY    66  62  86 CALM      30.01S
KILL DEVIL HLS MOCLDY    65  63  93 CALM      30.00S
MANTEO         MOCLDY    64  63  96 S3        30.01S
CAPE HATTERAS  CLOUDY    61  59  93 CALM      30.01S
TARBORO*       FAIR      65  63  94 CALM      30.01S
GOLDSBORO      CLOUDY    67  65  91 CALM      29.98F
WASHINGTON     CLOUDY    67  64  88 S3        30.01S
GREENVILLE     CLOUDY    68  64  88 S5        30.02S
NEW BERN       CLOUDY    66  63  90 CALM      30.02S
WILMINGTON     LGT RAIN  67  65  93 CALM      30.00F
$$

VAZ048-180500-
ELSEWHERE

CITY           SKY/WX    TMP DP  RH WIND       PRES   REMARKS
HARRISBURG PA  PTCLDY    57  49  74 SE3       29.99R
BALTIMORE      MOCLDY    63  57  81 CALM      29.98R
ANNAPOLIS      PTCLDY    58  56  93 NW3       29.97F
ANDREWS AFB    MOCLDY    62  60  94 CALM      29.98S
PHILADELPHIA   PTCLDY    64  58  80 CALM      29.98R
HENDERSON NC   CLOUDY    64  60  88 CALM      30.01S
GREENSBORO     CLOUDY    63  60  90 CALM      30.02S
ROCKY MOUNT    CLOUDY    66  64  93 CALM      30.00F
$$

VAZ100-180500-
MARINE

STATION/POSITION TIME  TEMP    WIND        PRES    WAVE   SWELL
                       AIR SEA DIR/SP/G            HT/PER HT/PER
                 (UTC) (F)     (DEG/KT/KT) (MB)    (FT/S) (FT/S)
CAPE MAY NJ      0300   58 54  120/  1/  2 1015.0S
LEWES DE         0300   65 51  210/  6/  9 1015.1R
15NM E FENWICK I 0350   52 48              1015.2F   4/ 8
OCEAN-CITY-INLET 0300          210/  6/  6   N/A
WACHAPREAGUE VA  0300   60 63  220/  5/  7 1015.9F
THOMAS POINT MD  0400   60 54  240/  5/  5 1015.8S
GOOSES REEF MD   0400   57 54  170/  6/  8   N/A     1/ 2
COVE POINT MD    0300   65     210/  6/  7 1014.9R
SOLOMONS ISLAND  0300      55                N/A
BISHOPS HEAD MD  0300   62 65  190/  8/  9 1014.7F
PINEY POINT MD   0300          190/  5/  6   N/A
CAMBRIDGE MD     0300   66 56  200/  5/  9 1014.9S
LEWISETTA VA     0300   66 60              1014.9S
RAPPAHANNOCK LGT 0300          150/  9/  9 1016.0R
STINGRAY PT      0400   57 54  160/  6/  8 1016.1F   0
YORK RVR RNG VA  0300   63     210/  6/  6 1014.8F
YORKTOWN VA      0300   64 57  220/  1/  2 1015.1R
DOMINION TERM VA 0300   66     170/  3/  4 1015.7R
KIPTOPEKE VA     0300      61  160/  5/  7   N/A
CHES BAY BRIDGE  0300          160/  7/  7   N/A
CAPE HENRY VA    0300   66     190/  5/  8 1014.3F
CHESAPEAKE LGHT  0300   58     180/ 18/ 18 1016.1S
WILLOUBY STN VA  0300   68     200/  7/  8 1016.1S
S CRANEY ISL VA  0300          180/  5/  6 1015.6R
CAPE HENRY BUOY  0328      54                N/A     3/ 8   2/11
1ST LANDING BUOY 0400   56     140/  6/  6 1015.4R   1/ 6
OFFSHORE WE BUOY 0311      48                N/A     4/ 8   3/ 8
64NM E OF VA BCH 0350   59 55  200/  6/  8 1015.8S   4/ 8   5/ 8
DUCK PIER NC     0300   64 53  190/  7/  9 1015.2F
44056 DUCK FRF   0311      53                N/A     3/ 8   2/11
OREGON INLET NC  0300   60 64  120/  2/  3 1016.2F
HATTERAS NC      0300          110/  2/  4   N/A
DIAMOND SHLS NC  0350   72 74  190/  6/  8 1016.3F   5/ 8   5/ 8
CAPE LOOKOUT NC  0400   67      CALM  /  1 1015.8F
$$



USA.gov is the U.S. government's official web portal to all federal, state and local government web resources and services.